Location: Hermaringen
(48.5952°N, 10.2585°E)
Time: 08:06:34
(UTC+00:00)

CZ-2D R/B - Pass Details

Date: 18 November 2025
Orbit: 525 x 597 km, 98.0° (Epoch: 13 December)

Event Time Altitude Azimuth Distance (km) Brightness Sun altitude
Rises 17:44:58 0° 175° (S) 2,788 6.9 -21.1°
Reaches altitude 10° 17:47:07 10° 179° (S) 1,903 6.1 -21.4°
Maximum altitude 17:51:12 58° 259° (W) 693 4.0 -22.1°
Drops below altitude 10° 17:55:23 10° 339° (NNW) 1,946 6.3 -22.8°
Sets 17:57:36 0° 343° (NNW) 2,856 7.1 -23.2°
